[[{"header":{"parameterUnit":"m.s-1","parameterCategory":1,"la1":30.2991,"la2":30.254,"lo1":-89.0895,"lo2":-89.0444,"dy":0.0017,"dx":0.0017,"nx":28,"ny":28,"refTime":"2023-08-22T03:00:00:Z","depth":0,"parameterNumber":2,"parameterNumberName":"U-component_of_WINDS"},"data":[0,0,0,0,0,0,0,0,0,0,0,0,0,0,0,0,0,0,0,0,0,0,0,0,0,0,0,0,0,0,0,0,0,0,0,0,0,0,0,0,0,0,0,0,0,0,0,0,0,0,0,0,0,0,0,0,0,0,-1.6087,-1.6085,0,-1.5886,-1.5884,-1.5882,-1.576,-1.5759,-1.5758,-1.5758,-1.5551,-1.5546,-1.5541,0,0,0,0,0,0,0,0,0,0,0,0,0,-1.6368,-1.6363,-1.6088,-1.6085,-1.6083,-1.5887,-1.5884,-1.5881,-1.576,-1.5759,-1.5758,-1.5758,-1.5552,-1.5546,-1.554,0,0,0,0,0,0,0,0,0,0,0,0,0,-1.6214,-1.6362,-1.6088,-1.5998,-1.5988,-1.5887,-1.5884,-1.588,-1.576,-1.5759,-1.5758,-1.5757,-1.5554,-1.5547,-1.554,-1.5511,0,0,-1.5517,-1.5514,0,0,0,0,0,0,0,0,-1.6223,-1.6204,-1.6014,-1.6004,-1.5993,-1.5847,-1.5906,-1.5757,-1.576,-1.5847,-1.5758,-1.5757,-1.565,-1.5635,-1.5599,-1.5502,-1.5493,-1.5516,-1.5512,-1.5508,-1.5506,0,0,0,0,0,0,0,-1.6234,-1.6212,-1.6008,-1.6012,-1.5999,-1.5969,-1.5946,-1.5877,-1.5756,-1.5839,-1.583,-1.5808,-1.5644,-1.5606,-1.5593,-1.549,-1.5516,-1.551,-1.5505,-1.5502,-1.5362,-1.5363,0,0,0,0,0,0,-1.6259,-1.6222,-1.6014,-1.6002,-1.6108,-1.5964,-1.5939,-1.5895,-1.5756,-1.5734,-1.5809,-1.5803,-1.5619,-1.5602,-1.5585,-1.5545,-1.5509,-1.5502,-1.5497,-1.5361,-1.5362,-1.5363,0,0,0,0,0,0,-1.6265,-1.6241,-1.6022,-1.6109,-1.6079,-1.596,-1.5912,-1.5891,-1.5853,-1.5733,-1.5711,-1.5792,-1.5618,-1.5596,-1.5531,-1.5536,-1.5498,-1.5491,-1.5361,-1.5362,-1.5363,-1.5463,0,0,0,0,0,0,-1.6274,-1.6244,-1.6232,-1.611,-1.6075,-1.5972,-1.5912,-1.5888,-1.5841,-1.5831,-1.5712,-1.5691,-1.5616,-1.5543,-1.5524,-1.5525,-1.5486,-1.536,-1.5361,-1.5362,-1.5459,-1.5467,-1.5475,0,0,0,0,0,-1.6284,-1.6267,-1.6232,-1.6208,-1.6057,-1.5972,-1.5952,-1.5866,-1.5842,-1.5829,-1.5752,-1.5695,-1.5539,-1.5538,-1.5515,-1.5514,-1.5359,-1.5361,-1.5362,-1.5455,-1.5465,-1.5474,0,0,0,0,0,0,-1.6392,-1.625,-1.6209,-1.6152,-1.6076,-1.5952,-1.5933,-1.5879,-1.5808,-1.5801,-1.5697,-1.5671,-1.5618,-1.5559,-1.556,-1.548,-1.5442,-1.544,-1.5521,-1.553,-1.5537,-1.5553,-1.5479,0,0,0,0,0,-1.641,-1.6353,-1.6231,-1.6193,-1.6157,-1.6052,-1.6012,-1.5952,-1.5868,-1.5835,-1.5753,-1.5674,-1.5607,-1.5565,-1.5496,-1.545,-1.5423,-1.5438,-1.5446,-1.5453,-1.5452,-1.5425,-1.5431,-1.5369,-1.5369,-1.5369,0,0,-1.6444,-1.636,-1.633,-1.6213,-1.6146,-1.609,-1.6025,-1.5968,-1.5926,-1.5826,-1.5761,-1.5699,-1.5603,-1.5549,-1.552,-1.5498,-1.5463,-1.5455,-1.5462,-1.5456,-1.5428,-1.5434,-1.5439,-1.537,-1.537,-1.5369,0,0,-1.648,-1.6409,-1.6371,-1.6306,-1.6207,-1.6138,-1.6129,-1.6014,-1.5969,-1.5902,-1.5827,-1.5776,-1.5662,-1.5598,-1.555,-1.5565,-1.5511,-1.5546,-1.5588,-1.5563,-1.5568,-1.5572,-1.5579,-1.5582,-1.5545,-1.5545,-1.5546,0,-1.6535,-1.6448,-1.6357,-1.6306,-1.6257,-1.6166,-1.6127,-1.6068,-1.5952,-1.5921,-1.5898,-1.5755,-1.5684,-1.5614,-1.5618,-1.5582,-1.557,-1.5559,-1.5575,-1.5577,-1.558,-1.5585,-1.5588,-1.555,-1.555,-1.5549,-1.5549,0,-1.6523,-1.6464,-1.6444,-1.6336,-1.6285,-1.624,-1.6143,-1.6103,-1.6048,-1.5982,-1.5917,-1.5829,-1.5743,-1.5721,-1.5667,-1.5644,-1.5634,-1.5594,-1.5554,-1.5592,-1.5596,-1.5597,-1.5558,-1.5556,-1.5554,-1.5553,0,0,-1.6618,-1.6462,-1.6457,-1.6408,-1.6293,-1.6246,-1.6198,-1.6114,-1.6082,-1.6005,-1.5963,-1.5871,-1.5834,-1.5781,-1.5718,-1.5697,-1.5717,-1.5659,-1.5656,-1.5674,-1.5689,-1.572,-1.5724,-1.568,-1.568,-1.568,-1.5697,0,-1.6637,-1.6546,-1.6465,-1.6403,-1.6349,-1.6263,-1.6221,-1.6147,-1.6084,-1.6029,-1.5959,-1.5896,-1.5852,-1.582,-1.5794,-1.572,-1.5718,-1.5717,-1.564,-1.5639,-1.5668,-1.5725,-1.5757,-1.5778,-1.5698,-1.5698,-1.5698,0,-1.6647,-1.6576,-1.651,-1.6403,-1.6377,-1.6341,-1.6259,-1.6207,-1.6122,-1.6078,-1.6021,-1.5956,-1.5902,-1.5869,-1.5794,-1.5795,-1.5759,-1.5718,-1.5717,-1.5706,-1.5671,-1.5718,-1.5782,-1.5786,-1.5699,-1.5699,-1.5699,0,-1.6725,-1.6613,-1.6559,-1.652,-1.6394,-1.6371,-1.6317,-1.6231,-1.6187,-1.6116,-1.6086,-1.6009,-1.5968,-1.591,-1.5827,-1.581,-1.5762,-1.572,-1.5725,-1.5727,-1.5718,-1.572,-1.5779,-1.5694,-1.5694,-1.5694,-1.5694,0,-1.6755,-1.6719,-1.6593,-1.6561,-1.6518,-1.6425,-1.6385,-1.6324,-1.6249,-1.6203,-1.6124,-1.6083,-1.5975,-1.5922,-1.5857,-1.5806,-1.5787,-1.5751,-1.5734,-1.5759,-1.5764,-1.5734,-1.5731,-1.5695,-1.5695,-1.5695,-1.5695,0,-1.6835,-1.675,-1.6686,-1.6573,-1.6544,-1.6518,-1.6421,-1.6386,-1.632,-1.6264,-1.6245,-1.6142,-1.6075,-1.5987,-1.5892,-1.5849,-1.5807,-1.578,-1.5836,-1.5826,-1.5836,-1.5837,-1.5878,-1.5879,-1.5794,-1.5795,-1.5796,0,-1.686,-1.683,-1.6715,-1.668,-1.6629,-1.6572,-1.6527,-1.6436,-1.6392,-1.6295,-1.6273,-1.62,-1.6137,-1.6035,-1.5952,-1.588,-1.5851,-1.5871,-1.584,-1.5866,-1.5853,-1.5857,-1.5854,-1.5879,-1.588,-1.5881,-1.5882,0,-1.6915,-1.6875,-1.6813,-1.6739,-1.6688,-1.6624,-1.6556,-1.6532,-1.6426,-1.6382,-1.6314,-1.6265,-1.617,-1.61,-1.6017,-1.5962,-1.5905,-1.5893,-1.589,-1.5915,-1.5949,-1.5933,-1.5858,-1.5892,-1.5891,-1.589,-1.589,-1.5889,-1.6968,-1.6939,-1.6854,-1.6789,-1.6729,-1.6669,-1.6632,-1.6563,-1.6504,-1.642,-1.6369,-1.6304,-1.6222,-1.6105,-1.6053,-1.6001,-1.5979,-1.5974,-1.5973,-1.5974,-1.5983,-1.5958,-1.5985,-1.5985,-1.5985,-1.5984,-1.5984,0,-1.702,-1.6962,-1.6903,-1.6812,-1.6762,-1.6714,-1.6638,-1.6599,-1.6542,-1.6471,-1.6412,-1.6335,-1.6267,-1.6179,-1.6106,-1.6081,-1.6053,-1.6065,-1.6066,-1.6055,-1.6006,-1.6017,-1.6089,-1.6089,-1.6089,-1.6089,-1.6089,-1.6089,-1.7041,-1.6989,-1.694,-1.6858,-1.68,-1.6736,-1.6697,-1.6641,-1.6584,-1.6502,-1.6446,-1.6389,-1.6312,-1.6233,-1.6169,-1.6145,-1.6122,-1.6142,-1.6111,-1.6067,-1.6058,-1.6049,-1.6058,-1.6138,-1.6138,-1.6163,-1.6164,-1.6164]},{"header":{"parameterUnit":"m.s-1","parameterCategory":1,"la1":30.2991,"la2":30.254,"lo1":-89.0895,"lo2":-89.0444,"dy":0.0017,"dx":0.0017,"nx":28,"ny":28,"refTime":"2023-08-22T03:00:00:Z","depth":0,"parameterNumber":3,"parameterNumberName":"V-component_of_WINDS"},"data":[0,0,0,0,0,0,0,0,0,0,0,0,0,0,0,0,0,0,0,0,0,0,0,0,0,0,0,0,0,0,0,0,0,0,0,0,0,0,0,0,0,0,0,0,0,0,0,0,0,0,0,0,0,0,0,0,0,0,1.415,1.415,0,1.4088,1.4087,1.4087,1.4083,1.4084,1.4085,1.4085,1.4016,1.4013,1.4011,0,0,0,0,0,0,0,0,0,0,0,0,0,1.4262,1.426,1.4151,1.415,1.4149,1.4088,1.4087,1.4086,1.4083,1.4084,1.4085,1.4086,1.4017,1.4014,1.4011,0,0,0,0,0,0,0,0,0,0,0,0,0,1.4208,1.426,1.4151,1.414,1.4139,1.4088,1.4087,1.4086,1.4083,1.4084,1.4085,1.4086,1.4018,1.4014,1.401,1.3965,0,0,1.3999,1.3997,0,0,0,0,0,0,0,0,1.4211,1.4204,1.4142,1.4141,1.4139,1.4095,1.4101,1.4045,1.4083,1.4104,1.4085,1.4087,1.4041,1.4035,1.4021,1.3961,1.3958,1.3998,1.3996,1.3994,1.3993,0,0,0,0,0,0,0,1.4215,1.4207,1.4126,1.4142,1.4139,1.4137,1.4131,1.4091,1.4067,1.4102,1.4102,1.4095,1.404,1.4025,1.4019,1.3957,1.3998,1.3995,1.3993,1.3991,1.3857,1.3855,0,0,0,0,0,0,1.4221,1.421,1.4128,1.4124,1.4179,1.4134,1.4127,1.4108,1.4067,1.4062,1.4094,1.4095,1.4031,1.4024,1.4017,1.396,1.3994,1.3991,1.3989,1.3858,1.3856,1.3855,0,0,0,0,0,0,1.4224,1.4214,1.413,1.4167,1.4156,1.4131,1.4109,1.4106,1.409,1.4061,1.4056,1.4083,1.4031,1.4022,1.3978,1.3957,1.3989,1.3986,1.3859,1.3857,1.3856,1.3846,0,0,0,0,0,0,1.4227,1.4215,1.4198,1.4166,1.4154,1.4093,1.4108,1.4104,1.4084,1.4085,1.4049,1.4044,1.4031,1.3984,1.3974,1.3953,1.3983,1.3861,1.3858,1.3856,1.3848,1.3844,1.384,0,0,0,0,0,1.4231,1.4197,1.4198,1.4188,1.4133,1.4092,1.4085,1.4072,1.4083,1.4065,1.4046,1.4045,1.3962,1.3979,1.3968,1.3945,1.3862,1.3859,1.3856,1.3849,1.3845,1.384,0,0,0,0,0,0,1.4225,1.4192,1.4193,1.4148,1.4123,1.4092,1.4069,1.4068,1.4038,1.404,1.4024,1.4016,1.3971,1.3954,1.3974,1.3899,1.3913,1.3908,1.3911,1.3906,1.3903,1.3906,1.3979,0,0,0,0,0,1.4219,1.419,1.4163,1.4126,1.4114,1.4094,1.4075,1.4068,1.4041,1.403,1.4008,1.3981,1.3948,1.3927,1.3895,1.3846,1.3837,1.3825,1.3822,1.3819,1.3813,1.3785,1.3779,1.3845,1.3845,1.3845,0,0,1.4204,1.4184,1.4166,1.4124,1.4104,1.4073,1.4085,1.4052,1.4028,1.4024,1.3981,1.3965,1.3933,1.3886,1.3864,1.387,1.3794,1.3815,1.3813,1.3809,1.3782,1.3775,1.377,1.3843,1.3844,1.3844,0,0,1.4163,1.4145,1.4112,1.4092,1.4063,1.405,1.4042,1.4011,1.4001,1.3958,1.3955,1.3926,1.3871,1.3848,1.3829,1.3781,1.3778,1.3771,1.375,1.3723,1.3718,1.3713,1.3694,1.3687,1.3766,1.3766,1.3766,0,1.4148,1.4103,1.4094,1.4061,1.4042,1.4041,1.4006,1.3987,1.3948,1.3934,1.3942,1.3873,1.3851,1.3799,1.3787,1.3773,1.3761,1.3773,1.372,1.3715,1.371,1.3692,1.3685,1.3766,1.3766,1.3766,1.3766,0,1.4086,1.4055,1.4032,1.3996,1.3975,1.3941,1.3925,1.3904,1.39,1.3886,1.3842,1.3817,1.378,1.3767,1.3761,1.3713,1.3718,1.3723,1.3736,1.3703,1.3685,1.3678,1.3764,1.3765,1.3765,1.3765,0,0,1.4036,1.3998,1.3989,1.3972,1.3941,1.3915,1.3882,1.3848,1.3829,1.3803,1.3773,1.3727,1.3732,1.3711,1.3703,1.3679,1.3641,1.3687,1.3686,1.3678,1.3585,1.3579,1.3571,1.3641,1.3639,1.3638,1.3587,0,1.3989,1.393,1.3921,1.3869,1.3839,1.3838,1.3808,1.3785,1.3771,1.3743,1.3728,1.3695,1.3705,1.3692,1.3669,1.3651,1.3622,1.3655,1.361,1.3608,1.3615,1.3562,1.3556,1.3509,1.358,1.3579,1.3578,0,1.3926,1.39,1.3844,1.3817,1.3804,1.3778,1.3746,1.372,1.3693,1.3685,1.3662,1.3658,1.3621,1.3638,1.3587,1.3609,1.3591,1.3579,1.3577,1.357,1.3589,1.3552,1.3494,1.3486,1.3567,1.3568,1.3569,0,1.3892,1.3843,1.3804,1.379,1.3758,1.3739,1.3724,1.3699,1.3679,1.3651,1.3638,1.3606,1.3587,1.3562,1.3548,1.3562,1.3496,1.3513,1.3486,1.3487,1.347,1.3471,1.3406,1.3463,1.3463,1.3463,1.3463,0,1.3839,1.3804,1.3788,1.3764,1.3725,1.3716,1.3677,1.3663,1.3641,1.3612,1.361,1.3582,1.3567,1.3537,1.3526,1.3484,1.3477,1.3467,1.3464,1.3466,1.3467,1.3451,1.3453,1.3461,1.3462,1.3462,1.3462,0,1.3793,1.3781,1.3738,1.3712,1.3705,1.3677,1.3654,1.3629,1.3617,1.3581,1.3572,1.3552,1.3517,1.3502,1.3458,1.3451,1.3402,1.3403,1.3411,1.341,1.3383,1.3385,1.3304,1.3292,1.336,1.3359,1.3358,0,1.3759,1.3733,1.3704,1.3686,1.3671,1.3642,1.3622,1.3612,1.3592,1.356,1.3539,1.3505,1.3476,1.342,1.3401,1.3367,1.3365,1.334,1.336,1.3363,1.3362,1.3363,1.3359,1.3335,1.3334,1.3333,1.3333,0,1.3698,1.3694,1.3667,1.3637,1.3615,1.359,1.3567,1.3552,1.3538,1.3515,1.348,1.3459,1.3415,1.338,1.3346,1.333,1.3328,1.3328,1.3319,1.3319,1.3324,1.3319,1.3398,1.3328,1.3329,1.3329,1.3329,1.333,1.3655,1.3632,1.3608,1.3578,1.356,1.3538,1.3514,1.35,1.3471,1.3436,1.3432,1.3395,1.3369,1.3323,1.3306,1.3275,1.3281,1.3269,1.3266,1.3262,1.326,1.3332,1.3269,1.3269,1.3269,1.3269,1.3269,0,1.3592,1.3578,1.355,1.3518,1.3494,1.3499,1.3473,1.3452,1.3419,1.3397,1.337,1.3329,1.3296,1.3275,1.3241,1.3221,1.3219,1.3212,1.3212,1.3207,1.3257,1.3267,1.3214,1.3214,1.3214,1.3214,1.3214,1.3214,1.3556,1.3517,1.351,1.3461,1.3446,1.3411,1.3396,1.3375,1.3357,1.3313,1.3286,1.3274,1.3251,1.3216,1.3185,1.318,1.3166,1.3158,1.3152,1.3199,1.3204,1.321,1.3218,1.3156,1.3156,1.3105,1.3104,1.3104]}]]